"startDT [UTC]","vpos","CH4 [ppm]","stdev(CH4) [ppm]","CO2 [ppm]","stdev(CO2) [ppm]","H2O [ppm]","stdev(H2O)","p_LGR [torr]","T_LGR [C]","mt1_LGR [us]","mt2_LGR [us]","T_ECpre [C]","T_EC1 [C]","T_EC2 [C]","p_inlet [hPa]","p_in [hPa]","p_out [hPa]","T_inlet [C]","RH_inlet [%]","dwpt_inlet [C]","T_vent [C]","RH_vent [%]","dwpt_vent [C]","flow_vent [l min-1]","flow_inlet [l min-1]","dwpt_sample [C]","T_room [C]"
2012-03-28 00:00:00,0.0,1.9006,0.0008,400.16,0.20,5.0,12.8,138.09,28.70,24.61,36.33,0.04,-272.73,-272.73,-51,561,-934,23.4,1.4,-32.3,23.4,1.5,-31.8,5.73,2.33,-29.8,28.0
2012-03-28 00:01:00,0.0,1.9005,0.0010,400.19,0.20,5.8,16.8,138.09,28.72,24.61,36.33,0.04,-272.73,-272.74,-52,561,-934,23.5,1.4,-32.3,23.4,1.5,-31.8,5.73,2.43,-29.7,28.1
2012-03-28 00:02:00,0.0,1.9002,0.0009,400.21,0.18,2.2,8.5,138.09,28.75,24.61,36.33,0.04,-272.74,-272.74,-51,561,-934,23.5,1.4,-32.3,23.5,1.5,-31.7,5.73,2.31,-29.6,28.2
2012-03-28 00:03:00,0.0,1.9008,0.0008,400.21,0.21,2.9,10.9,138.09,28.77,24.61,36.34,0.04,-272.73,-272.74,-51,561,-934,23.6,1.4,-32.2,23.5,1.5,-31.7,5.73,2.50,-29.6,27.6
2012-03-28 00:04:00,0.0,1.9010,0.0009,400.23,0.18,7.2,15.3,138.09,28.78,24.61,36.34,0.04,-272.73,-272.74,-52,561,-935,23.6,1.4,-32.3,23.5,1.5,-31.7,5.73,2.34,-29.6,27.2
2012-03-28 00:05:00,0.0,1.9009,0.0009,400.25,0.18,4.1,12.0,138.10,28.79,24.61,36.34,0.04,-272.73,-272.73,-52,562,-935,23.6,1.4,-32.1,23.5,1.5,-31.7,5.73,2.31,-29.7,26.8
2012-03-28 00:06:00,0.0,1.9014,0.0008,400.33,0.19,2.9,11.8,138.10,28.80,24.61,36.33,0.04,-272.74,-272.74,-52,562,-935,23.5,1.4,-32.1,23.5,1.5,-31.7,5.73,2.40,-29.8,26.7
2012-03-28 00:07:00,0.0,1.9011,0.0009,400.27,0.20,2.8,10.2,138.11,28.80,24.62,36.34,0.04,-272.74,-272.74,-52,562,-935,23.5,1.4,-32.1,23.4,1.5,-31.6,5.73,2.47,-29.8,26.5
2012-03-28 00:08:00,0.0,1.9013,0.0008,400.40,0.19,1.5,7.6,138.11,28.79,24.61,36.33,0.04,-272.73,-272.73,-52,562,-935,23.5,1.4,-32.0,23.4,1.5,-31.5,5.73,2.44,-29.9,26.4
2012-03-28 00:09:00,0.0,1.9015,0.0009,400.46,0.22,2.3,9.8,138.12,28.79,24.61,36.33,0.04,-272.74,-272.74,-52,562,-935,23.5,1.4,-32.1,23.4,1.5,-31.6,5.73,2.37,-30.0,26.3
2012-03-28 00:10:00,0.0,1.9012,0.0009,400.52,0.20,0.5,6.9,138.12,28.78,24.61,36.33,0.04,-272.74,-272.74,-52,562,-935,23.5,1.4,-32.1,23.3,1.5,-31.6,5.73,2.33,-30.1,26.2
2012-03-28 00:11:00,0.0,1.9007,0.0008,400.50,0.17,0.1,4.9,138.12,28.76,24.61,36.33,0.04,-272.74,-272.74,-52,562,-935,23.4,1.5,-32.0,23.3,1.5,-31.6,5.73,2.34,-30.2,26.0
2012-03-28 00:12:00,0.0,1.9004,0.0009,400.54,0.21,-0.6,1.9,138.13,28.75,24.61,36.33,0.04,-272.74,-272.73,-52,562,-935,23.4,1.5,-31.9,23.3,1.5,-31.7,5.73,2.40,-30.2,26.0
2012-03-28 00:13:00,0.0,1.9000,0.0009,400.51,0.19,-0.8,1.3,138.13,28.73,24.61,36.33,0.04,-272.74,-272.74,-52,562,-935,23.4,1.5,-32.0,23.3,1.5,-31.7,5.73,2.45,-30.3,25.9
2012-03-28 00:14:00,0.0,1.8995,0.0008,400.55,0.22,-1.0,0.0,138.13,28.72,24.61,36.33,0.04,-272.73,-272.73,-52,562,-935,23.3,1.5,-32.0,23.2,1.5,-31.5,5.73,2.45,-30.3,25.8
2012-03-28 00:15:00,0.0,1.8993,0.0009,400.54,0.19,-1.0,0.0,138.13,28.70,24.61,36.33,0.04,-272.74,-272.73,-52,562,-935,23.3,1.5,-31.8,23.2,1.5,-31.5,5.73,2.40,-30.4,25.7
2012-03-28 00:16:00,0.0,1.8989,0.0007,400.39,0.21,-0.5,2.6,138.14,28.68,24.61,36.33,0.04,-272.74,-272.74,-52,562,-935,23.3,1.5,-31.8,23.2,1.6,-31.4,5.73,2.34,-30.4,25.7
2012-03-28 00:17:00,0.0,1.8985,0.0008,400.51,0.21,-0.8,1.7,138.14,28.66,24.61,36.32,0.04,-272.74,-272.74,-52,562,-935,23.3,1.5,-31.8,23.1,1.6,-31.2,5.73,2.33,-30.5,25.6
2012-03-28 00:18:00,0.0,1.8986,0.0009,400.44,0.17,-1.0,0.0,138.14,28.65,24.61,36.32,0.04,-272.73,-272.74,-52,562,-935,23.2,1.5,-31.7,23.1,1.6,-31.2,5.73,2.38,-30.5,26.2
2012-03-28 00:19:00,0.0,1.8987,0.0009,400.44,0.22,-0.8,1.5,138.13,28.64,24.61,36.33,0.04,-272.74,-272.73,-52,561,-935,23.2,1.5,-31.8,23.2,1.6,-31.2,5.73,2.49,-30.4,26.7
2012-03-28 00:20:00,0.0,1.8990,0.0007,400.47,0.19,-0.7,1.9,138.13,28.63,24.61,36.33,0.04,-272.74,-272.73,-52,561,-935,23.3,1.5,-31.9,23.2,1.6,-31.3,5.73,2.28,-30.3,27.0
2012-03-28 00:21:00,0.0,1.8996,0.0008,400.38,0.20,0.1,5.5,138.12,28.63,24.61,36.33,0.04,-272.73,-272.73,-52,561,-935,23.3,1.5,-31.8,23.2,1.6,-31.3,5.73,2.46,-30.2,27.2
2012-03-28 00:22:00,0.0,1.9002,0.0010,400.37,0.18,0.3,6.3,138.11,28.64,24.61,36.33,0.04,-272.74,-272.73,-52,561,-935,23.3,1.5,-31.8,23.3,1.6,-31.3,5.73,2.36,-30.1,27.4
2012-03-28 00:23:00,0.0,1.9007,0.0009,400.25,0.22,0.0,4.9,138.11,28.65,24.61,36.34,0.04,-272.74,-272.74,-52,561,-934,23.3,1.5,-31.8,23.3,1.6,-31.3,5.73,2.35,-30.0,27.6
2012-03-28 00:24:00,0.0,1.9007,0.0008,400.22,0.21,0.9,6.4,138.10,28.67,24.61,36.33,0.04,-272.73,-272.73,-52,561,-934,23.4,1.5,-31.7,23.4,1.6,-31.2,5.73,2.48,-29.9,27.7
2012-03-28 00:25:00,0.0,1.9011,0.0008,400.18,0.22,1.0,6.0,138.10,28.69,24.61,36.33,0.04,-272.73,-272.73,-52,561,-935,23.4,1.5,-31.7,23.4,1.6,-31.2,5.73,2.28,-29.8,27.9
2012-03-28 00:26:00,0.0,1.9008,0.0009,400.10,0.17,4.3,11.3,138.10,28.71,24.61,36.34,0.04,-272.74,-272.74,-51,561,-934,23.5,1.5,-31.7,23.4,1.6,-31.2,5.73,2.47,-29.7,28.0
2012-03-28 00:27:00,0.0,1.9013,0.0008,400.23,0.18,6.3,12.7,138.09,28.73,24.61,36.33,0.04,-272.74,-272.74,-52,561,-934,23.5,1.5,-31.7,23.5,1.6,-31.2,5.73,2.31,-29.7,28.1
2012-03-28 00:28:00,0.0,1.9012,0.0009,400.19,0.21,5.4,14.0,138.09,28.75,24.61,36.34,0.04,-272.74,-272.73,-52,561,-934,23.6,1.5,-31.6,23.5,1.6,-31.2,5.73,2.48,-29.6,28.2
2012-03-28 00:29:00,0.0,1.9012,0.0008,400.22,0.21,8.4,17.9,138.09,28.77,24.61,36.34,0.04,-272.74,-272.74,-51,561,-934,23.6,1.5,-31.7,23.5,1.6,-31.1,5.73,2.28,-29.5,27.9
2012-03-28 00:30:00,0.0,1.9015,0.0009,400.25,0.19,7.3,17.9,138.09,28.79,24.61,36.34,0.04,-272.73,-272.74,-52,562,-935,23.6,1.5,-31.6,23.6,1.6,-31.1,5.73,2.46,-29.5,27.3
2012-03-28 00:31:00,0.0,1.9016,0.0008,400.28,0.19,8.6,16.1,138.10,28.80,24.61,36.33,0.04,-272.74,-272.73,-52,562,-935,23.6,1.5,-31.7,23.5,1.6,-31.1,5.73,2.46,-29.5,26.9
2012-03-28 00:32:00,0.0,1.9020,0.0009,400.24,0.21,2.4,8.1,138.10,28.81,24.61,36.34,0.04,-272.73,-272.74,-52,563,-935,23.6,1.5,-31.6,23.5,1.6,-31.2,5.73,2.34,-29.6,26.8
2012-03-28 00:33:00,0.0,1.9021,0.0009,400.40,0.20,4.3,11.2,138.11,28.81,24.61,36.33,0.04,-272.74,-272.74,-52,562,-935,23.6,1.5,-31.6,23.5,1.6,-31.2,5.73,2.31,-29.7,26.6
2012-03-28 00:34:00,0.0,1.9022,0.0010,400.39,0.21,2.3,11.0,138.11,28.81,24.61,36.33,0.04,-272.73,-272.74,-52,563,-935,23.5,1.5,-31.7,23.5,1.6,-31.2,5.73,2.38,-29.8,26.5
2012-03-28 00:35:00,0.0,1.9021,0.0010,400.44,0.20,3.3,11.7,138.11,28.81,24.61,36.34,0.04,-272.74,-272.73,-52,563,-935,23.5,1.5,-31.6,23.5,1.6,-31.1,5.73,2.46,-29.8,26.4
2012-03-28 00:36:00,0.0,1.9021,0.0009,400.56,0.19,0.4,4.2,138.12,28.80,24.62,36.33,0.04,-272.74,-272.74,-52,563,-935,23.5,1.5,-31.5,23.4,1.6,-31.0,5.73,2.46,-29.9,26.2
2012-03-28 00:37:00,0.0,1.9021,0.0009,400.56,0.21,0.2,4.3,138.12,28.79,24.61,36.33,0.04,-272.74,-272.73,-52,563,-935,23.5,1.5,-31.5,23.4,1.6,-31.1,5.73,2.39,-29.9,26.1
2012-03-28 00:38:00,0.0,1.9015,0.0009,400.58,0.20,0.6,6.6,138.12,28.78,24.61,36.33,0.04,-272.73,-272.74,-52,563,-935,23.5,1.5,-31.5,23.4,1.6,-31.1,5.73,2.32,-30.0,26.0
2012-03-28 00:39:00,0.0,1.9010,0.0010,400.64,0.17,-0.5,4.1,138.13,28.76,24.61,36.33,0.04,-272.73,-272.74,-52,563,-935,23.4,1.5,-31.6,23.3,1.6,-31.1,5.73,2.33,-30.1,26.0
2012-03-28 00:40:00,1.0,1.8831,0.0126,385.86,10.30,-0.5,2.1,138.13,28.75,24.61,36.33,0.04,-272.74,-272.74,-52,513,-935,23.4,1.5,-31.6,23.3,1.6,-31.1,5.73,2.40,-30.1,25.9
2012-03-28 00:41:00,1.0,1.8681,0.0010,373.98,0.17,-0.4,3.1,138.13,28.73,24.61,36.34,0.04,-272.73,-272.74,-52,512,-935,23.4,1.5,-31.6,23.3,1.6,-31.1,5.73,2.46,-30.2,25.8
2012-03-28 00:42:00,1.0,1.8675,0.0008,374.01,0.19,0.2,5.0,138.13,28.71,24.61,36.34,0.04,-272.73,-272.74,-52,512,-935,23.3,1.5,-31.6,23.3,1.6,-31.1,5.73,2.45,-30.2,25.8
2012-03-28 00:43:00,1.0,1.8671,0.0008,374.00,0.22,-0.2,4.0,138.14,28.70,24.61,36.34,0.04,-272.74,-272.74,-52,512,-935,23.3,1.5,-31.6,23.2,1.6,-31.1,5.73,2.38,-30.2,25.7
2012-03-28 00:44:00,1.0,1.8669,0.0009,373.90,0.17,-1.0,0.0,138.14,28.68,24.61,36.34,0.04,-272.73,-272.73,-52,512,-935,23.3,1.5,-31.6,23.2,1.6,-31.1,5.73,2.32,-30.3,25.7
2012-03-28 00:45:00,0.0,1.8849,0.0127,388.61,10.25,-1.0,0.0,138.14,28.66,24.61,36.33,0.04,-272.73,-272.73,-52,562,-935,23.3,1.5,-31.6,23.2,1.6,-31.1,5.73,2.38,-30.3,26.4
2012-03-28 00:46:00,0.0,1.8998,0.0008,400.36,0.22,-0.9,0.4,138.13,28.65,24.61,36.33,0.04,-272.73,-272.74,-52,562,-935,23.3,1.5,-31.5,23.2,1.6,-31.2,5.73,2.50,-30.2,26.9
2012-03-28 00:47:00,0.0,1.9002,0.0010,400.45,0.18,-0.6,2.2,138.12,28.65,24.61,36.32,0.04,-272.74,-272.74,-52,561,-935,23.3,1.5,-31.4,23.3,1.6,-31.1,5.73,2.28,-30.1,27.2
2012-03-28 00:48:00,0.0,1.9004,0.0009,400.45,0.19,-0.7,1.4,138.12,28.65,24.61,36.33,0.04,-272.73,-272.72,-52,562,-935,23.4,1.5,-31.4,23.3,1.6,-30.9,5.73,2.47,-30.0,27.4
2012-03-28 00:49:00,0.0,1.9016,0.0009,400.30,0.19,-0.5,3.0,138.11,28.66,24.61,36.34,0.04,-272.74,-272.73,-52,561,-935,23.4,1.5,-31.4,23.4,1.6,-30.9,5.73,2.36,-29.9,27.6
2012-03-28 00:50:00,0.0,1.9017,0.0010,400.31,0.19,2.5,11.5,138.11,28.67,24.61,36.33,0.04,-272.74,-272.74,-52,562,-935,23.5,1.5,-31.5,23.4,1.6,-31.0,5.73,2.34,-29.8,27.8
2012-03-28 00:51:00,0.0,1.9018,0.0008,400.21,0.21,3.1,11.1,138.10,28.69,24.61,36.33,0.04,-272.74,-272.74,-52,561,-935,23.5,1.5,-31.5,23.5,1.6,-30.9,5.73,2.48,-29.7,27.9
2012-03-28 00:52:00,0.0,1.9018,0.0008,400.30,0.16,2.0,8.6,138.10,28.70,24.61,36.32,0.04,-272.73,-272.73,-52,562,-935,23.5,1.5,-31.5,23.5,1.6,-31.0,5.73,2.28,-29.6,28.0
2012-03-28 00:53:00,0.0,1.9022,0.0010,400.21,0.20,9.2,17.7,138.09,28.72,24.61,36.33,0.04,-272.73,-272.74,-52,562,-935,23.6,1.5,-31.4,23.5,1.6,-30.9,5.73,2.49,-29.6,28.2
2012-03-28 00:54:00,0.0,1.9020,0.0008,400.21,0.19,5.4,10.6,138.09,28.75,24.61,36.34,0.04,-272.74,-272.73,-52,562,-935,23.6,1.5,-31.5,23.6,1.6,-30.9,5.73,2.28,-29.5,28.3
2012-03-28 00:55:00,0.0,1.9024,0.0008,400.35,0.18,6.2,15.1,138.09,28.77,24.61,36.33,0.04,-272.73,-272.74,-51,562,-935,23.7,1.5,-31.4,23.6,1.6,-30.9,5.73,2.50,-29.4,28.3
2012-03-28 00:56:00,0.0,1.9021,0.0010,400.30,0.21,8.9,15.4,138.09,28.79,24.61,36.34,0.04,-272.74,-272.74,-52,562,-935,23.7,1.5,-31.4,23.7,1.6,-30.9,5.73,2.28,-29.3,27.8
2012-03-28 00:57:00,0.0,1.9021,0.0008,400.30,0.19,5.3,12.5,138.09,28.81,24.61,36.34,0.04,-272.74,-272.74,-52,563,-935,23.7,1.5,-31.4,23.7,1.6,-30.9,5.73,2.39,-29.4,27.3
2012-03-28 00:58:00,0.0,1.9027,0.0010,400.32,0.18,8.0,18.4,138.10,28.82,24.61,36.34,0.04,-272.73,-272.74,-52,563,-935,23.7,1.5,-31.4,23.7,1.6,-30.9,5.73,2.48,-29.4,27.1
2012-03-28 00:59:00,0.0,1.9025,0.0008,400.42,0.22,1.1,6.0,138.10,28.83,24.61,36.33,0.04,-272.73,-272.73,-52,563,-935,23.7,1.5,-31.4,23.6,1.6,-30.8,5.73,2.40,-29.6,26.8
2012-03-28 01:00:00,0.0,1.9030,0.0009,400.41,0.20,1.1,4.4,138.11,28.83,24.61,36.33,0.04,-272.74,-272.74,-52,563,-935,23.7,1.5,-31.2,23.6,1.6,-30.7,5.73,2.31,-29.6,26.7
2012-03-28 01:01:00,0.0,1.9032,0.0009,400.45,0.20,3.5,11.5,138.11,28.83,24.61,36.33,0.04,-272.73,-272.74,-52,563,-936,23.7,1.5,-31.2,23.6,1.6,-30.7,5.73,2.33,-29.7,26.5
2012-03-28 01:02:00,0.0,1.9032,0.0009,400.51,0.22,2.5,11.9,138.11,28.82,24.61,36.33,0.04,-272.73,-272.74,-52,564,-936,23.6,1.5,-31.3,23.5,1.6,-30.8,5.73,2.43,-29.8,26.3
2012-03-28 01:03:00,0.0,1.9028,0.0009,400.57,0.22,0.3,6.4,138.12,28.81,24.61,36.33,0.04,-272.74,-272.74,-52,564,-936,23.6,1.5,-31.3,23.5,1.6,-30.8,5.73,2.47,-29.9,26.3
2012-03-28 01:04:00,0.0,1.9027,0.0011,400.62,0.17,1.7,10.4,138.12,28.81,24.61,36.33,0.04,-272.74,-272.74,-52,564,-936,23.6,1.5,-31.3,23.5,1.6,-30.8,5.73,2.41,-29.9,26.2
2012-03-28 01:05:00,0.0,1.9024,0.0009,400.65,0.25,-0.4,3.6,138.12,28.79,24.61,36.33,0.04,-272.73,-272.73,-52,563,-936,23.6,1.5,-31.3,23.5,1.6,-30.8,5.73,2.33,-30.0,26.1
2012-03-28 01:06:00,0.0,1.9017,0.0008,400.62,0.18,0.6,6.5,138.13,28.78,24.61,36.33,0.04,-272.73,-272.74,-52,563,-936,23.5,1.5,-31.2,23.5,1.6,-30.7,5.73,2.32,-30.1,26.0
2012-03-28 01:07:00,0.0,1.9018,0.0008,400.57,0.24,-0.3,3.0,138.13,28.77,24.61,36.33,0.04,-272.73,-272.74,-52,563,-936,23.5,1.6,-31.1,23.4,1.6,-30.6,5.73,2.40,-30.1,25.9
2012-03-28 01:08:00,0.0,1.9011,0.0008,400.65,0.21,-0.6,2.4,138.13,28.75,24.61,36.33,0.04,-272.73,-272.74,-52,563,-936,23.5,1.6,-31.1,23.4,1.7,-30.6,5.73,2.46,-30.2,25.9
2012-03-28 01:09:00,0.0,1.9006,0.0009,400.61,0.19,-0.9,0.8,138.13,28.73,24.61,36.33,0.04,-272.74,-272.74,-52,563,-936,23.5,1.6,-31.0,23.4,1.6,-30.7,5.73,2.45,-30.2,25.8
2012-03-28 01:10:00,0.0,1.9004,0.0009,400.64,0.24,-0.8,1.7,138.13,28.72,24.61,36.32,0.04,-272.74,-272.74,-52,563,-936,23.5,1.6,-31.0,23.3,1.6,-30.7,5.73,2.36,-30.3,25.8
2012-03-28 01:11:00,0.0,1.9001,0.0008,400.59,0.23,-0.8,1.7,138.14,28.70,24.61,36.33,0.04,-272.74,-272.74,-52,563,-936,23.4,1.6,-31.0,23.3,1.7,-30.6,5.73,2.31,-30.3,25.8
2012-03-28 01:12:00,0.0,1.9002,0.0008,400.48,0.20,-1.0,0.0,138.14,28.68,24.61,36.33,0.04,-272.73,-272.73,-52,563,-935,23.4,1.6,-31.0,23.3,1.7,-30.5,5.73,2.37,-30.3,26.3
2012-03-28 01:13:00,0.0,1.9003,0.0009,400.50,0.21,-0.5,3.6,138.13,28.67,24.61,36.33,0.04,-272.74,-272.74,-52,562,-935,23.4,1.6,-31.0,23.3,1.7,-30.5,5.73,2.49,-30.3,26.8
2012-03-28 01:14:00,0.0,1.9009,0.0009,400.54,0.23,-0.6,1.8,138.13,28.67,24.61,36.33,0.04,-272.74,-272.73,-53,562,-935,23.4,1.6,-31.0,23.3,1.7,-30.5,5.73,2.28,-30.2,27.1
2012-03-28 01:15:00,0.0,1.9010,0.0008,400.54,0.23,-0.9,0.9,138.12,28.67,24.61,36.33,0.04,-272.73,-272.73,-52,562,-935,23.5,1.6,-31.0,23.4,1.7,-30.5,5.73,2.47,-30.1,27.4
2012-03-28 01:16:00,0.0,1.9020,0.0010,400.42,0.22,0.1,4.4,138.11,28.68,24.61,36.34,0.04,-272.74,-272.73,-52,563,-935,23.5,1.6,-31.0,23.5,1.6,-30.6,5.73,2.35,-30.0,27.6
2012-03-28 01:17:00,0.0,1.9024,0.0009,400.35,0.19,0.2,5.6,138.11,28.69,24.61,36.33,0.04,-272.74,-272.73,-52,562,-935,23.5,1.6,-31.1,23.5,1.7,-30.6,5.73,2.36,-29.9,27.8
2012-03-28 01:18:00,0.0,1.9023,0.0009,400.26,0.19,5.1,15.3,138.10,28.70,24.61,36.34,0.04,-272.73,-272.73,-52,563,-935,23.5,1.6,-31.1,23.5,1.6,-30.6,5.73,2.47,-29.8,27.9
2012-03-28 01:19:00,0.0,1.9030,0.0008,400.24,0.22,2.5,9.6,138.10,28.72,24.61,36.34,0.04,-272.73,-272.73,-52,562,-935,23.6,1.6,-31.1,23.6,1.7,-30.5,5.73,2.28,-29.7,28.0
2012-03-28 01:20:00,0.0,1.9027,0.0008,400.26,0.19,5.7,13.3,138.09,28.75,24.61,36.33,0.04,-272.74,-272.74,-52,563,-935,23.6,1.6,-31.1,23.6,1.6,-30.6,5.73,2.49,-29.6,28.2
2012-03-28 01:21:00,0.0,1.9022,0.0010,400.31,0.22,5.7,13.1,138.09,28.77,24.61,36.33,0.04,-272.73,-272.74,-52,562,-935,23.7,1.5,-31.2,23.6,1.6,-30.5,5.73,2.28,-29.5,28.3
2012-03-28 01:22:00,0.0,1.9027,0.0009,400.27,0.17,6.1,14.3,138.09,28.79,24.61,36.34,0.04,-272.74,-272.74,-52,563,-935,23.7,1.5,-31.2,23.7,1.6,-30.6,5.73,2.50,-29.4,28.4
2012-03-28 01:23:00,0.0,1.9026,0.0009,400.23,0.19,4.1,10.5,138.09,28.82,24.61,36.34,0.04,-272.73,-272.74,-52,563,-935,23.8,1.5,-31.2,23.7,1.6,-30.6,5.73,2.28,-29.3,27.8
2012-03-28 01:24:00,0.0,1.9027,0.0010,400.33,0.17,6.4,15.6,138.09,28.83,24.61,36.34,0.04,-272.74,-272.74,-52,563,-935,23.8,1.5,-31.1,23.7,1.6,-30.5,5.73,2.40,-29.4,27.4
2012-03-28 01:25:00,0.0,1.9031,0.0009,400.32,0.19,6.0,14.2,138.10,28.85,24.61,36.34,0.04,-272.73,-272.73,-52,563,-936,23.8,1.6,-31.0,23.7,1.6,-30.5,5.73,2.48,-29.4,27.1
2012-03-28 01:26:00,0.0,1.9036,0.0008,400.42,0.21,4.7,11.9,138.10,28.86,24.61,36.34,0.04,-272.73,-272.73,-52,564,-936,23.7,1.6,-31.0,23.7,1.6,-30.5,5.73,2.41,-29.5,27.0
2012-03-28 01:27:00,0.0,1.9035,0.0009,400.44,0.23,2.2,9.2,138.10,28.86,24.61,36.33,0.04,-272.74,-272.74,-52,564,-936,23.7,1.6,-31.0,23.7,1.6,-30.6,5.73,2.32,-29.6,26.8
2012-03-28 01:28:00,0.0,1.9035,0.0010,400.45,0.19,4.0,12.4,138.11,28.86,24.61,36.34,0.04,-272.74,-272.73,-52,564,-936,23.7,1.6,-30.8,23.6,1.6,-30.6,5.73,2.32,-29.6,26.7
2012-03-28 01:29:00,0.0,1.9033,0.0009,400.56,0.18,1.9,8.8,138.11,28.85,24.62,36.33,0.04,-272.74,-272.73,-52,564,-936,23.7,1.6,-30.8,23.6,1.7,-30.5,5.73,2.41,-29.7,26.5
2012-03-28 01:30:00,0.0,1.9036,0.0007,400.61,0.18,0.6,4.7,138.12,28.85,24.61,36.33,0.04,-272.73,-272.74,-52,564,-936,23.7,1.6,-30.8,23.6,1.7,-30.4,5.73,2.47,-29.8,26.4
2012-03-28 01:31:00,0.0,1.9034,0.0009,400.69,0.20,1.0,6.1,138.12,28.84,24.61,36.33,0.04,-272.74,-272.73,-52,564,-936,23.6,1.6,-30.9,23.6,1.7,-30.4,5.73,2.43,-29.8,26.3
2012-03-28 01:32:00,0.0,1.9030,0.0011,400.66,0.21,1.2,8.0,138.12,28.83,24.61,36.33,0.04,-272.73,-272.73,-52,564,-936,23.6,1.6,-30.9,23.5,1.7,-30.4,5.73,2.34,-29.9,26.2
2012-03-28 01:33:00,0.0,1.9032,0.0011,400.68,0.21,0.5,6.2,138.12,28.82,24.61,36.33,0.04,-272.73,-272.74,-52,564,-936,23.6,1.6,-30.9,23.5,1.7,-30.5,5.73,2.31,-29.9,26.1
2012-03-28 01:34:00,0.0,1.9021,0.0008,400.62,0.19,-0.3,5.0,138.13,28.80,24.61,36.33,0.04,-272.73,-272.74,-52,564,-936,23.6,1.6,-30.9,23.5,1.7,-30.4,5.73,2.38,-30.0,26.1
2012-03-28 01:35:00,0.0,1.9018,0.0009,400.69,0.20,-0.3,3.1,138.13,28.79,24.61,36.33,0.04,-272.73,-272.73,-52,564,-936,23.6,1.6,-30.9,23.5,1.7,-30.5,5.73,2.46,-29.9,26.0
2012-03-28 01:36:00,0.0,1.9018,0.0008,400.61,0.17,-0.8,1.6,138.13,28.78,24.61,36.33,0.04,-272.73,-272.74,-52,564,-936,23.5,1.6,-30.9,23.5,1.7,-30.5,5.73,2.45,-30.0,26.0
2012-03-28 01:37:00,0.0,1.9013,0.0010,400.56,0.21,-0.7,2.5,138.13,28.76,24.61,36.33,0.04,-272.74,-272.74,-52,564,-936,23.5,1.6,-30.9,23.5,1.7,-30.5,5.73,2.36,-30.1,25.9
2012-03-28 01:38:00,0.0,1.9010,0.0008,400.68,0.19,-1.0,0.0,138.13,28.74,24.61,36.32,0.04,-272.74,-272.73,-52,563,-936,23.5,1.6,-30.8,23.4,1.7,-30.5,5.73,2.31,-30.1,25.8
2012-03-28 01:39:00,0.0,1.9009,0.0009,400.54,0.20,-0.7,1.9,138.13,28.73,24.61,36.33,0.04,-272.73,-272.73,-52,563,-936,23.5,1.6,-30.8,23.4,1.7,-30.5,5.73,2.35,-30.1,25.8
2012-03-28 01:40:00,0.0,1.9007,0.0009,400.64,0.19,-1.0,0.0,138.13,28.71,24.61,36.32,0.04,-272.74,-272.73,-53,563,-936,23.5,1.6,-30.8,23.4,1.7,-30.3,5.73,2.48,-30.1,26.3
2012-03-28 01:41:00,0.0,1.9009,0.0008,400.57,0.16,-0.7,1.7,138.13,28.70,24.61,36.33,0.04,-272.74,-272.74,-52,563,-936,23.5,1.6,-30.7,23.4,1.7,-30.3,5.73,2.37,-30.1,26.9
2012-03-28 01:42:00,0.0,1.9015,0.0010,400.53,0.17,-0.7,1.4,138.12,28.70,24.61,36.33,0.04,-272.74,-272.74,-52,563,-936,23.5,1.6,-30.6,23.4,1.7,-30.3,5.73,2.39,-30.0,27.2
2012-03-28 01:43:00,0.0,1.9017,0.0008,400.51,0.23,1.9,10.6,138.12,28.70,24.61,36.33,0.04,-272.74,-272.73,-52,563,-936,23.5,1.6,-30.7,23.5,1.7,-30.3,5.73,2.34,-29.9,27.5
2012-03-28 01:44:00,0.0,1.9023,0.0008,400.43,0.18,0.5,4.7,138.11,28.71,24.61,36.34,0.04,-272.74,-272.74,-52,563,-935,23.5,1.6,-30.7,23.5,1.7,-30.3,5.73,2.47,-29.8,27.7
2012-03-28 01:45:00,0.0,1.9027,0.0010,400.35,0.18,3.5,11.9,138.11,28.72,24.61,36.34,0.04,-272.73,-272.73,-52,563,-936,23.6,1.6,-30.7,23.6,1.7,-30.3,5.73,2.28,-29.6,27.9
2012-03-28 01:46:00,0.0,1.9027,0.0009,400.30,0.22,4.7,13.1,138.10,28.74,24.61,36.34,0.04,-272.73,-272.73,-52,563,-935,23.6,1.6,-30.7,23.6,1.7,-30.2,5.73,2.47,-29.6,28.0
2012-03-28 01:47:00,0.0,1.9030,0.0010,400.24,0.21,7.1,14.7,138.10,28.76,24.61,36.34,0.04,-272.74,-272.74,-52,563,-935,23.7,1.6,-30.6,23.6,1.7,-30.2,5.73,2.32,-29.5,28.2
2012-03-28 01:48:00,0.0,1.9029,0.0009,400.22,0.17,9.3,19.2,138.09,28.79,24.61,36.34,0.04,-272.73,-272.74,-52,563,-935,23.7,1.6,-30.7,23.7,1.7,-30.2,5.73,2.42,-29.4,28.3
2012-03-28 01:49:00,0.0,1.9031,0.0008,400.36,0.17,12.1,18.4,138.09,28.81,24.61,36.34,0.04,-272.73,-272.73,-52,563,-935,23.7,1.6,-30.6,23.7,1.7,-30.1,5.73,2.34,-29.3,28.4
2012-03-28 01:50:00,0.0,1.9030,0.0009,400.48,0.19,8.9,14.8,138.09,28.83,24.61,36.33,0.04,-272.73,-272.74,-52,563,-935,23.8,1.6,-30.6,23.8,1.7,-30.1,5.73,2.44,-29.2,28.4
2012-03-28 01:51:00,0.0,1.9031,0.0011,400.44,0.18,9.7,20.6,138.09,28.86,24.61,36.33,0.04,-272.73,-272.74,-52,563,-936,23.8,1.6,-30.6,23.8,1.7,-30.1,5.73,2.29,-29.1,27.8
2012-03-28 01:52:00,0.0,1.9036,0.0009,400.49,0.23,14.0,21.3,138.09,28.88,24.61,36.33,0.04,-272.73,-272.74,-52,564,-936,23.8,1.6,-30.6,23.8,1.7,-30.1,5.73,2.45,-29.1,27.5
2012-03-28 01:53:00,0.0,1.9034,0.0008,400.47,0.22,12.0,19.1,138.09,28.89,24.61,36.33,0.04,-272.74,-272.73,-52,564,-936,23.8,1.6,-30.6,23.8,1.7,-30.1,5.73,2.46,-29.2,27.2
2012-03-28 01:54:00,0.0,1.9040,0.0008,400.46,0.17,9.8,20.6,138.10,28.90,24.61,36.34,0.04,-272.74,-272.74,-52,564,-936,23.8,1.6,-30.6,23.8,1.7,-30.1,5.73,2.36,-29.3,27.0
2012-03-28 01:55:00,0.0,1.9040,0.0008,400.56,0.18,5.4,13.7,138.10,28.90,24.61,36.33,0.04,-272.74,-272.73,-52,564,-936,23.8,1.6,-30.5,23.7,1.7,-30.1,5.73,2.31,-29.3,26.8
2012-03-28 01:56:00,0.0,1.9041,0.0010,400.48,0.20,4.2,11.4,138.11,28.90,24.61,36.34,0.04,-272.73,-272.73,-52,564,-936,23.8,1.6,-30.4,23.7,1.7,-30.0,5.73,2.37,-29.4,26.8
2012-03-28 01:57:00,0.0,1.9042,0.0010,400.58,0.23,4.2,11.5,138.11,28.90,24.61,36.33,0.04,-272.74,-272.74,-53,564,-936,23.8,1.6,-30.4,23.7,1.7,-30.0,5.73,2.47,-29.5,26.6
2012-03-28 01:58:00,0.0,1.9041,0.0008,400.58,0.20,4.2,11.9,138.11,28.89,24.61,36.33,0.04,-272.74,-272.74,-52,565,-936,23.8,1.6,-30.5,23.7,1.7,-30.0,5.73,2.45,-29.5,26.5
2012-03-28 01:59:00,0.0,1.9041,0.0010,400.72,0.18,3.1,10.6,138.12,28.88,24.61,36.33,0.04,-272.73,-272.74,-52,565,-936,23.7,1.6,-30.5,23.7,1.7,-30.0,5.73,2.34,-29.6,26.4
2012-03-28 02:00:00,0.0,1.9036,0.0008,400.70,0.19,1.5,7.3,138.12,28.87,24.61,36.33,0.04,-272.74,-272.73,-52,565,-936,23.7,1.6,-30.5,23.6,1.7,-30.0,5.73,2.30,-29.6,26.3
2012-03-28 02:01:00,0.0,1.9034,0.0010,400.69,0.21,1.5,7.4,138.12,28.86,24.61,36.33,0.04,-272.74,-272.74,-52,564,-936,23.7,1.6,-30.5,23.6,1.7,-30.0,5.73,2.40,-29.7,26.3
2012-03-28 02:02:00,0.0,1.9034,0.0008,400.68,0.19,1.2,6.2,138.12,28.84,24.61,36.33,0.04,-272.73,-272.74,-52,564,-936,23.7,1.6,-30.5,23.6,1.7,-30.0,5.73,2.48,-29.7,26.2
2012-03-28 02:03:00,0.0,1.9029,0.0010,400.76,0.21,-0.6,3.2,138.13,28.83,24.61,36.32,0.04,-272.73,-272.74,-53,564,-936,23.7,1.7,-30.4,23.6,1.7,-30.0,5.73,2.42,-29.7,26.2
2012-03-28 02:04:00,0.0,1.9027,0.0009,400.72,0.20,1.1,9.0,138.13,28.82,24.61,36.33,0.04,-272.74,-272.74,-53,564,-936,23.6,1.7,-30.4,23.6,1.8,-29.9,5.73,2.31,-29.8,26.2
2012-03-28 02:05:00,0.0,1.9023,0.0009,400.63,0.20,0.2,3.9,138.13,28.81,24.61,36.33,0.04,-272.73,-272.74,-52,564,-936,23.6,1.7,-30.4,23.5,1.8,-29.9,5.73,2.32,-29.8,26.2
2012-03-28 02:06:00,0.0,1.9020,0.0009,400.77,0.19,-1.0,0.0,138.13,28.80,24.61,36.32,0.04,-272.74,-272.74,-52,564,-936,23.6,1.7,-30.3,23.5,1.8,-29.9,5.73,2.43,-29.8,26.1
2012-03-28 02:07:00,0.0,1.9016,0.0009,400.65,0.25,-0.4,2.6,138.13,28.78,24.61,36.33,0.04,-272.74,-272.73,-52,564,-936,23.6,1.7,-30.2,23.5,1.8,-29.9,5.73,2.47,-29.8,25.9
2012-03-28 02:08:00,0.0,1.9018,0.0009,400.63,0.21,0.1,5.2,138.13,28.77,24.61,36.32,0.04,-272.74,-272.74,-53,564,-936,23.6,1.7,-30.2,23.5,1.8,-29.8,5.73,2.38,-29.9,25.9
2012-03-28 02:09:00,0.0,1.9016,0.0011,400.58,0.21,0.9,6.2,138.13,28.76,24.61,36.33,0.04,-272.74,-272.74,-53,564,-936,23.5,1.7,-30.2,23.5,1.8,-29.8,5.73,2.29,-29.9,26.0
2012-03-28 02:10:00,0.0,1.9013,0.0009,400.52,0.20,-0.6,2.4,138.13,28.75,24.61,36.33,0.04,-272.74,-272.74,-53,564,-936,23.5,1.7,-30.1,23.5,1.8,-29.8,5.73,2.43,-29.9,26.7
2012-03-28 02:11:00,0.0,1.9021,0.0008,400.65,0.19,-0.9,0.6,138.12,28.74,24.61,36.33,0.04,-272.74,-272.74,-52,563,-936,23.6,1.7,-30.0,23.5,1.8,-29.6,5.73,2.36,-29.7,27.2
2012-03-28 02:12:00,0.0,1.9023,0.0008,400.64,0.20,0.0,3.9,138.12,28.74,24.61,36.33,0.04,-272.74,-272.73,-53,564,-936,23.6,1.7,-30.0,23.5,1.8,-29.7,5.73,2.44,-29.6,27.5
2012-03-28 02:13:00,0.0,1.9027,0.0008,400.44,0.22,1.3,6.1,138.11,28.75,24.61,36.33,0.04,-272.74,-272.74,-52,563,-936,23.6,1.7,-30.2,23.6,1.8,-29.7,5.73,2.29,-29.5,27.7
2012-03-28 02:14:00,0.0,1.9034,0.0010,400.48,0.21,4.5,12.3,138.11,28.77,24.61,36.33,0.04,-272.73,-272.74,-53,564,-936,23.7,1.7,-30.2,23.6,1.8,-29.7,5.73,2.49,-29.4,27.9
2012-03-28 02:15:00,0.0,1.9037,0.0009,400.46,0.17,8.2,15.1,138.10,28.78,24.61,36.33,0.04,-272.73,-272.73,-52,563,-936,23.7,1.7,-30.1,23.7,1.8,-29.6,5.73,2.31,-29.3,28.1
2012-03-28 02:16:00,0.0,1.9035,0.0008,400.43,0.18,8.7,17.6,138.10,28.80,24.61,36.33,0.04,-272.73,-272.74,-52,563,-936,23.7,1.7,-29.9,23.7,1.8,-29.4,5.73,2.44,-29.2,28.2
2012-03-28 02:17:00,0.0,1.9038,0.0009,400.33,0.19,10.2,19.1,138.09,28.82,24.61,36.34,0.04,-272.74,-272.74,-52,563,-936,23.8,1.7,-30.1,23.7,1.8,-29.5,5.73,2.34,-29.1,28.3
2012-03-28 02:18:00,0.0,1.9037,0.0011,400.39,0.21,13.6,19.4,138.09,28.85,24.61,36.33,0.04,-272.74,-272.74,-52,564,-936,23.8,1.7,-30.0,23.8,1.8,-29.6,5.73,2.42,-29.0,28.5